Terminal Aerodrome Forecast
Issued by NWS

Home | Current Version | Previous Version | Text Only | Print | Product List | Glossary On
Versions: 1 2 3 4 5 6 7 8 9 10 11 12 13 14 15 16 17 18 19 20 21 22 23 24 25 26 27 28 29 30 31 32 33 34 35 36 37 38 39 40 41 42 43 44 45 46 47 48 49 50
000
FTUS43 KMKX 251149
TAFUES
TAF
KUES 251149Z 2512/2612 21005KT P6SM VCSH FEW050 SCT120 BKN250
     FM251800 21009KT P6SM SCT070 BKN120
     FM252300 18009KT P6SM VCTS SCT050CB BKN120
     FM260400 19008KT 6SM SHRA BKN040
     FM260600 22007KT P6SM SCT025 OVC035
     FM260900 23007KT P6SM OVC015=

USA.gov is the U.S. government's official web portal to all federal, state and local government web resources and services.